1,2060010712,148.22,-38.49,1000.63,-252.2700043,-104.9599991,NaN
1,2060010718,150.7,-40.42,1000.97,-278.8399963,-113.9199982,60.27000046
2,2060022500,154.13,-34.31,1009.86,-72.62999725,-111.8199997,NaN
2,2060022506,155.56,-34.5,1010.38,-28.77000046,-121.1900024,18.89999962
2,2060022512,156.39,-34.16,1010.1,-1.340000033,-127.5199966,19.04999924
2,2060022518,157.69,-34.05,1009.99,36.88999939,-125.9700012,21.36000061
2,2060022600,158.34,-33.79,1010.68,72.94000244,-127.8499985,15.72999954
2,2060022606,158.79,-33.13,1010.81,44.04999924,-138.6600037,9.949999809
2,2060022612,158.97,-32.59,1011.14,47.56000137,-152.8800049,9.289999962
2,2060022618,158.47,-32.06,1011.44,68.41000366,-154.25,-4.849999905
2,2060022700,157.47,-31.66,1012.13,76.94999695,-156.1699982,-10.42000008
2,2060022706,156.21,-31.26,1012.07,80.58999634,-162,-14.35000038
2,2060022712,155.36,-31.2,1011.44,92.47000122,-179.1900024,-19.45000076
2,2060022718,154.08,-31.26,1012.27,65,-190.3099976,-18.84000015
3,2060030118,150.35,-34.3,1006.13,54.49000168,-104.5299988,NaN
3,2060030200,150.45,-35.73,1005.21,53.93000031,-128.3000031,-10.31999969
3,2060030206,148.1,-37.85,1003.88,8.039999962,-169.5500031,-27.37999916
3,2060030212,146.53,-38.94,1004.71,8.479999542,-171.6600037,-18.63999939
3,2060030218,146.08,-39.74,1004.72,-60.90000153,-162.8999939,12.57999992
3,2060030300,145.63,-40.81,1004.74,-62.93999863,-158.7200012,17.56999969
3,2060030306,145.5,-42.4,1002.94,-42.38999939,-124.7699966,21.90999985
3,2060030312,147.81,-43.26,1002.38,-76.66000366,-128.1799927,24.64999962
3,2060030318,148.63,-44.36,1002.49,-56.00999832,-144.7799988,25.96999931
3,2060030400,144.08,-34.32,1008.3,-198.4700012,-88.25,-37.22000122
3,2060030406,143.95,-34.11,1005.89,-173.6600037,-82.09999847,-34.02000046
3,2060030412,144.9,-34.8,1006.78,-179.0599976,-50.22000122,37.54999924
3,2060030418,145.1,-35.2,1008.68,-185.4799957,-50.50999832,28.25
4,2060030718,149.15,-43.6,1005.02,-263.0700073,-259.4100037,NaN
4,2060030800,148.29,-38.57,1000.83,-243.1000061,-293.769989,-36.63999939
4,2060030806,152.08,-39.1,998.25,-198.3899994,-304.1499939,49.75
4,2060030812,156.18,-41.34,996.99,-230.6499939,-329.1499939,52.31999969
4,2060030818,157.44,-38.97,1000.65,-160.6999969,-294.8399963,-22.14999962
4,2060030900,157.26,-36.11,1003.7,-195.5700073,-229.6399994,-28.87999916
4,2060030906,161.05,-37.45,1005.64,-165.1900024,-210.7299957,45.88000107
4,2060030912,162.96,-38,1007.38,-182.5500031,-205.3699951,44.13999939
5,2060031000,154.51,-30.3,1006.91,-113.7099991,-302.3900146,NaN
5,2060031006,155.41,-30.85,1006.75,-76.87000275,-299.3500061,52.11000061
5,2060031012,157.61,-31.22,1006.94,-125.7600021,-268.230011,45.00999832
5,2060031018,159.73,-33.23,1005.96,-86.62999725,-268.6000061,46.68999863
5,2060031100,161.17,-34.61,1004.76,-78.58999634,-259.8500061,50.04999924
5,2060031106,162.31,-36.02,1005.43,-65.31999969,-260.2600098,54.00999832
5,2060031112,163.23,-36.85,1005.85,-45.38999939,-246.4100037,56.50999832
5,2060031118,166.39,-39.24,1009.94,-23.77000046,-198.5899963,38.34999847
6,2060033012,171.77,-12.15,1006.48,26.20999908,22.07999992,NaN
6,2060033018,170.83,-13,1005.03,44.36000061,32.18000031,-1.929999948
6,2060033100,170.43,-12.37,1004.53,38.22000122,28.79999924,-1.49000001
6,2060033106,170.71,-12.39,1004.36,44.02000046,26.87999916,-0.3400000036
6,2060033112,170.86,-12.78,1004.64,81.61000061,22.30999947,2.299999952
6,2060033118,170.36,-13.2,1003.43,59.09000015,37.00999832,0.2099999934
6,2060040100,169.9,-13.34,1002.42,45.56999969,47.97000122,-0.09000000358
6,2060040106,169.43,-13.93,1001.86,55.31000137,57.58000183,2.150000095
6,2060040112,168.64,-14.1,1000.28,67.16000366,60.04999924,-1.309999943
6,2060040118,168.06,-14.41,999.91,90.65000153,63.56999969,-2.099999905
6,2060040200,167.37,-14.59,997.88,102.9499969,68.91000366,-1.570000052
6,2060040206,166.73,-14.73,998.05,98.87999725,74.86000061,-0.7400000095
6,2060040212,166.05,-15.18,997.06,112.2099991,66.95999908,-2.369999886
6,2060040218,165.12,-15.5,996.28,116.9499969,69.51999664,0.3700000048
6,2060040300,164.3,-15.82,995.05,101.3499985,77.23999786,3.900000095
6,2060040306,163.61,-16.11,994.36,117.7099991,91,4.630000114
6,2060040312,162.92,-16.55,994.37,127.0100021,77.26999664,4.75
6,2060040318,162.05,-16.98,995.16,101.7200012,75.51000214,1.909999967
6,2060040400,161.2,-17.4,995.63,81.44999695,86.11000061,-0.2700000107
6,2060040406,160.54,-18.1,996.13,89.13999939,79.41999817,-0.9100000262
6,2060040412,159.7,-18.8,995.86,100.3700027,65.83000183,-0.5500000119
6,2060040418,159.04,-19.69,995.98,115.0299988,61.75999832,-2.059999943
6,2060040500,158.66,-20.92,994.79,142.8399963,67.19999695,-3.329999924
6,2060040506,158.27,-22.02,993.25,183.4799957,78.48000336,-1.820000052
6,2060040512,158.14,-22.98,992.74,173.3899994,66.66999817,-0.07999999821
6,2060040518,158.22,-23.8,993.74,142.5500031,40.74000168,6.989999771
6,2060040600,158.44,-24.74,994.88,142.2100067,-7.679999828,15.01000023
6,2060040606,158.62,-25.79,996.28,150.9499969,-37.09999847,18.27000046
6,2060040612,158.48,-26.72,996.5,134.5099945,-16.84000015,12.09000015
6,2060040618,158.25,-27.37,997.68,113.3000031,15.71000004,7.150000095
6,2060040700,157.99,-27.88,999.8,75.33000183,17.92000008,1.460000038
6,2060040706,158.04,-28.12,1000.55,74.23000336,-49.38999939,-4.179999828
6,2060040712,158.33,-28.45,1002.35,76.13999939,-110.3000031,1.480000019
6,2060040718,158.51,-28.86,1003.41,75.30999756,-138.4799957,3.660000086
6,2060040800,158.92,-29.36,1003.47,20.63999939,-142.9900055,11.98999977
6,2060040806,159.49,-30.41,1002.74,-11.22000027,-140.3500061,17.37999916
6,2060040812,160.25,-34.38,999.69,38.97999954,-132.4799957,21.31999969
6,2060040818,161.07,-36.11,995.72,53.54000092,-99.26000214,20.71999931
6,2060040900,162.74,-39.04,992.9,-23.54000092,-106.1699982,18.88999939
6,2060040906,164.23,-42.71,989.05,-75.33999634,-197.9799957,18.60000038
6,2060040912,169.61,-44.65,990.21,42.59999847,-144.4799957,6.829999924
7,2060043000,159.01,-38.48,1004.64,-181.2299957,-276.75,NaN
7,2060043006,163.25,-40.78,1002.77,-176.0299988,-250.1600037,42.81999969
7,2060043012,166.94,-42.87,1002.73,-156.4299927,-222.1300049,43.29999924
7,2060043018,170.39,-44.14,1002.72,-151.1799927,-196.6699982,41.22999954
7,2060050100,171.77,-43.37,1003.52,-116.0999985,-183.3200073,10.38000011
8,2060050318,137.13,-35.13,1006.15,-277.9400024,-304.5700073,NaN
8,2060050400,140.63,-36.39,1005.76,-274.7600098,-334.0700073,56.56999969
8,2060050406,142.67,-36.44,1005.93,-271.0499878,-332.1799927,51.45999908
8,2060050412,143.68,-32.11,1007.41,-280.7000122,-252.8099976,-8.43999958
8,2060050418,145.85,-30.34,1007.7,-274.1000061,-238.4600067,27.18000031
8,2060050500,148.47,-30.71,1008.39,-235.3099976,-215.1699982,56.38999939
8,2060050506,153.17,-33.76,1003.09,-167.0700073,-223.0200043,54.08000183
8,2060050512,156.72,-33.69,1002.76,-109,-186.8800049,18.20999908
8,2060050518,158.96,-35.39,998.69,-44.13000107,-200.8600006,33.36000061
8,2060050600,162.35,-37.12,996.7,-91.19000244,-198.0599976,36.66999817
8,2060050606,164.84,-39.2,994.48,-123.3199997,-210.3399963,47.77999878
8,2060050612,166.88,-36.82,994.48,-70.34999847,-238.6600037,-39.20999908
8,2060050618,169.57,-37.96,991.85,-116.5999985,-241.8999939,26.20999908
8,2060050700,171.47,-38.71,991.43,-119.6900024,-220.6399994,14.35000038
9,2060050506,157.04,-39.57,998.55,-57.09000015,-196.8899994,NaN
9,2060050512,159.32,-40.85,997.42,-61.93000031,-202.3999939,37.83000183
9,2060050518,161.48,-41.2,996.83,-40.59999847,-205.7100067,29.29000092
9,2060050600,163.86,-43.09,995.1,-81.55000305,-226.4600067,44.61999893
9,2060050606,165.52,-42.46,994.98,-133.6799927,-200.1999969,-0.4799999893
9,2060050612,166.57,-40.48,991.81,-107.4400024,-201.3300018,-44.65000153
9,2060050618,168.39,-40.84,989.97,-58.47000122,-216.4900055,18.20999908
9,2060050700,169.84,-41,988.13,-48.00999832,-197.4400024,-5.21999979
9,2060050706,170.86,-41.49,988.96,-10.63000011,-151.5299988,8.470000267
9,2060050712,171.13,-40.97,990.94,33.50999832,-102.5800018,-32.97999954
9,2060050718,171.44,-40.17,992.18,28.81999969,-102.8600006,-6.269999981
9,2060050800,172.1,-39.31,994.09,3.859999895,-92.18000031,7.210000038
9,2060050806,173.27,-38.67,996.11,9.31000042,-115.1299973,10.96000004
9,2060050812,173.79,-38.04,998.91,18.77000046,-130.8600006,8.149999619
9,2060050818,174.57,-37.36,1002.83,-4.199999809,-114.2900009,6.940000057
10,2060051000,157.48,-35.31,1005.94,-48.47000122,-267.3200073,NaN
10,2060051006,162.55,-34.77,1005.16,-93.84999847,-200.7400055,31.07999992
10,2060051012,164.2,-35.82,1002.09,-27.90999985,-202.75,30.62999916
10,2060051018,164.76,-36.72,999.48,13.53999996,-183.2899933,26.09000015
10,2060051100,165.8,-37.36,997.96,-13.35999966,-186.1399994,28.20000076
10,2060051106,169.33,-39.3,996.62,-12.42000008,-141.1499939,32.04000092
10,2060051112,170.14,-40.5,995.52,19.67000008,-145.0599976,26.89999962
10,2060051118,170.8,-40.99,994.59,-14.78999996,-196.3899994,28.70999908
10,2060051200,173,-42.22,993.55,-64.73999786,-178.0700073,23.12999916
11,2060061600,162.94,-30.85,1006.32,-230,-350.75,NaN
11,2060061606,164.93,-32.95,1004.18,-173.5800018,-315.2799988,54.84000015
11,2060061612,166.57,-36.05,1002.57,-47.56999969,-206.9600067,42.90000153
11,2060061618,166.09,-39.33,1000.24,77.51000214,-100.3099976,17.13999939
11,2060061700,164.62,-40.92,998.67,82.98000336,-14.85999966,10.26000023
11,2060061706,164.34,-41.01,998.19,59.93000031,8.630000114,11.52000046
11,2060061712,163.29,-40.96,998.54,36.81999969,31.26000023,10.81999969
11,2060061718,162.23,-40.3,999.68,33.24000168,26.35000038,5.460000038
11,2060061800,161.36,-39.52,1000.83,41.97000122,27.52000046,2.480000019
11,2060061806,160.55,-39.11,1001.87,49.81999969,37.04999924,-0.8999999762
11,2060061812,160.2,-38.59,1003.16,45.43000031,1.889999986,-4.630000114
11,2060061818,159.68,-38.45,1004.01,38.74000168,-51.65000153,-7.800000191
11,2060061900,160.29,-37.91,1004.48,34.90999985,-102.5599976,0.7099999785
11,2060061906,160.12,-37.63,1004.79,22.68000031,-93.90000153,-6.429999828
12,2060081200,153.95,-36.52,1008.73,-11.23999977,-227.4400024,NaN
12,2060081206,155.21,-37.59,1008.03,13.97000027,-180.0800018,1.710000038
12,2060081212,160.87,-34.43,1008.05,-106.2900009,-287.8900146,9.18999958
12,2060081218,162.34,-35.9,1004.96,31.36000061,-223.3300018,11.32999992
12,2060081300,163.08,-36.53,1004.1,58.88000107,-158.0899963,3.539999962
12,2060081306,163.91,-36.17,1005.27,35.93000031,-129.6499939,15.75
12,2060081312,165.09,-34.98,1007.48,-11.31999969,-173.7599945,20.37999916
12,2060081318,166.94,-33.74,1009.52,-64.83000183,-190.5299988,26.51000023
13,2060082206,112.52,-41.24,992.94,-126.0699997,-265.8099976,NaN
13,2060082212,115.21,-43.79,988.62,-64.94000244,-144.4900055,17.14999962
13,2060082218,118.94,-43.02,987.12,-28.80999947,-150.7100067,-13.81000042
13,2060082300,123.79,-42.3,987.8,-26.62000084,-158.9900055,-6.059999943
13,2060082306,127.02,-42.51,988.05,-14.63000011,-142.4700012,-1.919999957
13,2060082312,134.99,-35.56,1000.16,-243.1399994,-323.2900085,7.590000153
13,2060082318,137.52,-38.83,995.58,-191.7200012,-288.480011,39.25
13,2060082400,140.62,-41.69,989.98,-132.6399994,-208.1499939,24.45999908
13,2060082406,146.3,-42.89,989.34,-64.83000183,-168.9199982,12.78999996
13,2060082412,152.67,-38.74,999.54,-152.7200012,-186.6900024,11.39999962
13,2060082418,156.13,-40.86,996.85,-66.02999878,-188.1399994,18.42000008
13,2060082500,158.91,-42.69,994.1,-16.45999908,-197.8999939,15.15999985
14,2060100618,145.43,-28.76,1001.82,-231.6900024,-207.2299957,NaN
14,2060100700,147.27,-28.62,1000.57,-194.8800049,-160.5099945,45.18000031
14,2060100706,153.32,-31.65,995.69,-275.1300049,-160.2299957,49.11000061
14,2060100712,157.36,-34.94,986.69,-173.7299957,-264.0400085,51.15999985
14,2060100718,160.41,-38.53,980.33,-53.34999847,-303.3299866,57.68000031
14,2060100800,162.37,-42.54,974.43,-21.84000015,-305.9400024,58.75
15,2060101918,157.24,-36.76,1003.44,-110.1800003,-162.5599976,NaN
15,2060102000,159.66,-38.34,1000.55,-159.6499939,-179.7799988,27.17000008
15,2060102006,161.64,-39.83,997.94,-177.8300018,-192.3099976,32.04000092
15,2060102012,163.98,-41.24,996.54,-170.3699951,-183.9299927,34.13999939
15,2060102018,165.97,-42.87,994.69,-119.2900009,-189.9499969,36.06000137
15,2060102100,168.47,-44.9,993.44,-130.9499969,-185.2700043,35.72000122
16,2060103000,115.26,-22.64,1012.16,-75.47000122,-167.6799927,NaN
16,2060103006,116.11,-23.01,1009.95,-79.66000366,-194.7899933,24.04999924
16,2060103012,115.73,-26.05,1009.5,-75.83000183,-223.3500061,0.1599999964
16,2060103018,114.74,-26.99,1008.51,-121.7900009,-214.0700073,-6.880000114
16,2060103100,114.45,-28.34,1007.61,-94.12000275,-219.2899933,18.01000023
16,2060103106,116.06,-29.26,1004.58,-106.6600037,-199.3600006,42.31000137
16,2060103112,116.76,-30.22,1003.67,-97.84999847,-204.1999969,39.75999832
16,2060103118,117.71,-30.22,1004.5,-73.08000183,-192.2200012,39.13000107
16,2060110100,119.36,-30.86,1005.19,-58.29000092,-186.3000031,42.61999893
16,2060110106,121.4,-31.64,1001.91,-181.4299927,-154.1999969,65.11000061
16,2060110112,124.85,-30.58,999.87,-176.6600037,-159.9499969,46.65000153
16,2060110118,127.16,-30.64,999.75,-172.6300049,-154.0099945,53.56999969
16,2060110200,131.84,-31.55,1001.77,-221.6300049,-113.8499985,56.81000137
16,2060110206,132.44,-30.15,1001.68,-252.1000061,-153.4299927,-2.99000001
16,2060110212,136.18,-31.02,1003.57,-174.4400024,-162.1600037,58.31999969
16,2060110218,142.78,-35.91,1004.13,-219.7200012,-174.6499939,48.63999939
16,2060110300,152.66,-40.61,1003.67,-317.4700012,-198.9299927,61.56999969
16,2060110306,156.74,-41.73,1006.07,-264.6300049,-247.4100037,53.79000092
17,2060110218,148.56,-38.75,1001.25,-296.6199951,-158.1999969,NaN
17,2060110300,154.53,-42.29,1002.52,-330.3999939,-205.8200073,66.73000336
17,2060110306,151.08,-35.61,1007.94,-175.5599976,-161.3300018,-22.19000053
18,2060110406,156.3,-35.08,1013,-122.8499985,-168.7700043,NaN
18,2060110412,158.74,-36.46,1012.36,-75.70999908,-175.9499969,15.38000011
18,2060110418,160.15,-37.1,1012.72,-48.29999924,-147.1600037,11.55000019
18,2060110500,161.68,-37.69,1012.47,-81.88999939,-121.25,14.46000004
18,2060110506,163.21,-38.22,1012.85,-86.58999634,-112.3700027,14.52000046
18,2060110512,164.8,-38.91,1014.01,-100.5800018,-91.44999695,14.96000004
18,2060110518,157.12,-33.04,1013.99,-26.45999908,-109.4499969,-15.60999966
18,2060110600,158.44,-33.45,1013.64,-3.559999943,-108.5599976,20.01000023
18,2060110606,159.44,-33.61,1013.09,11.09000015,-100.9199982,25.20000076
18,2060110612,160.56,-33.74,1013.56,-16.44000053,-88.01000214,30.27000046
18,2060110618,161.7,-33.45,1015.52,-8.710000038,-95.76000214,18.53000069
18,2060110700,162.61,-33.21,1016.93,10.23999977,-98.76000214,16.31999969
18,2060110706,163.14,-32.99,1017.41,-4.630000114,-99.79000092,14.65999985
18,2060110712,163.15,-32.89,1017.85,-1.529999971,-77.94999695,3.069999933
18,2060110718,162.79,-33,1018.38,-12.19999981,-74.16000366,-17.01000023
18,2060110800,162.63,-33.44,1017.56,-4.739999771,-84.51000214,-5.96999979
19,2060121900,143.2,-36.48,1008.26,-114.6100006,-182.3800049,NaN
19,2060121906,144.87,-36.45,1005.17,-154.2899933,-198.5500031,29.86000061
19,2060121912,146.37,-35.81,1007.47,-168.4199982,-181.8800049,24.52000046
19,2060121918,149.64,-38.44,1008.3,-183.8200073,-212.7200012,32.90000153
19,2060122000,151.26,-37.05,1008.57,-137.8600006,-186.3099976,23.94000053
19,2060122006,147.48,-35.18,1008.93,-108.4300003,-213.5899963,-43.06999969
19,2060122012,153.24,-34.44,1008.95,-108.5699997,-222.4900055,28.62999916
19,2060122018,154.28,-34.18,1010.38,-100.1100006,-207.2299957,27.27000046
20,2061010906,155.48,-39.71,1004.19,-205.7899933,-168.7899933,NaN
20,2061010912,157.43,-39.27,1005.36,-123.6500015,-172.4400024,23.62000084
20,2061010918,160.56,-39.65,1005.2,-117.6699982,-156.5399933,34.68000031
20,2061011000,163.92,-40.43,1005.82,-119.2099991,-161.8099976,38.29999924
20,2061011006,167.49,-41.45,1007.05,-205.3099976,-162.25,40.61000061
20,2061011012,169.48,-41.93,1007.92,-160.4700012,-181.0099945,39.93000031
20,2061011018,169.87,-41.35,1009.6,-92.40000153,-158.4100037,18.65999985
20,2061011100,169.66,-41.36,1011.27,-61.00999832,-125.1399994,-19.09000015
20,2061011106,165.84,-33.25,1007.29,16.84000015,-122.1800003,-7.489999771
20,2061011112,166.09,-35.54,1005.7,55.15000153,-123.9400024,-1.299999952
20,2061011118,166.35,-37.22,1004.19,96.09999847,-143.4499969,-4.409999847
20,2061011200,167.37,-38.46,1003.06,36.24000168,-158.1000061,3.039999962
20,2061011206,169.01,-40.29,1002.11,-4.309999943,-158.3200073,9.130000114
20,2061011212,170.75,-41.8,1002.44,-86.52999878,-162.8200073,20.29000092
20,2061011218,174.79,-44.94,1001.67,-92.98000336,-159.9600067,24.68000031
21,2061032218,153.65,-34.89,1001.08,-318.5599976,-341.9400024,NaN
21,2061032300,160.81,-42.43,996.61,-272.4400024,-281.3500061,60.86999893
21,2061032306,165.24,-44.42,997.2,-273.5,-230.6600037,60.99000168
21,2061032312,165.17,-42.25,995.91,-223.1399994,-320.5299988,-55.81000137
21,2061032318,167.21,-42.71,994.83,-122.6399994,-332.2000122,50.68000031
21,2061032400,168.28,-42.85,994.87,-69.98000336,-311.519989,34.79000092
21,2061032406,168.57,-40.85,996.59,-78,-233.4499969,-47.72000122
21,2061032412,169.42,-40.62,998.55,-93.26999664,-214.2100067,-0.8500000238
21,2061032418,170.41,-40.68,1000.67,-96.33999634,-214.3300018,18.56999969
21,2061032500,170.98,-40.64,1003.44,-104.8399963,-213.4700012,13.52999973
21,2061032506,171.72,-40.54,1005.55,-126.5999985,-185.3099976,13.39999962
21,2061032512,172.42,-40.08,1008.58,-136.0200043,-233.1600037,9.130000114
22,2061041200,158.71,-37.48,1012.31,-57.59999847,-193.2599945,NaN
22,2061041206,161.08,-38.47,1010.28,-49.04000092,-186.2799988,25.89999962
22,2061041212,162.66,-38.72,1009.56,-15.89999962,-153.5,21.62999916
22,2061041218,163.47,-38.4,1009.46,16.93000031,-148.4100037,5.739999771
22,2061041300,163.34,-34.99,1008.82,-8.979999542,-187.4100037,-16.69000053
22,2061041306,163.73,-35.44,1008.09,26.97999954,-162.4700012,20.20999908
22,2061041312,163.7,-35.44,1007.79,31.09000015,-113.75,2.089999914
22,2061041318,163.44,-34.11,1007.75,22.90999985,-68.37999725,-12.57999992
23,2061041906,148.71,-41.97,999.94,-187.2700043,-232.2299957,NaN
23,2061041912,151.31,-42.66,997.97,-131.8099976,-247.3000031,20.96999931
23,2061041918,152.57,-42.45,994.99,-53.88999939,-222.7599945,-14.22999954
23,2061042000,153.07,-41.76,992.66,89.30000305,-174.8099976,-44.61999893
23,2061042006,154.48,-40.77,991.16,110.25,-125.8199997,-34.61000061
23,2061042012,155.8,-39.82,991,78.59999847,-162.4100037,-15.94999981
23,2061042018,158.11,-39.14,990.93,39.79999924,-207.2100067,-2.720000029
23,2061042100,160.27,-39.07,991.2,19.37999916,-200.8899994,5.46999979
23,2061042106,161.9,-39.16,991.9,-16.72999954,-190.1499939,11.35000038
23,2061042112,163.1,-38.91,993.32,-64.63999939,-208.8099976,17.11000061
23,2061042118,164.82,-38.58,994.76,-82.66000366,-200.5200043,19.39999962
23,2061042200,167,-39.42,995.53,-83.19999695,-152.6600037,14.55000019
23,2061042206,168.48,-39.01,996.63,-91.36000061,-134.7599945,20.78000069
23,2061042212,170.12,-39.04,997.47,-78.45999908,-128.9900055,22.20999908
23,2061042218,171.29,-39.15,998.16,-43.34999847,-132.1399994,20.5
23,2061042300,172.1,-38.85,998.06,-34.45999908,-126.0100021,11.27999973
23,2061042306,173.11,-38.94,997.9,-17.20000076,-112.5199966,14.61999989
23,2061042312,173.49,-39.02,997.63,6.619999886,-84.75,11.77999973
23,2061042318,174.09,-38.58,997.5,1.909999967,-100.0599976,3.369999886
24,2061041912,152.89,-34.41,1002.78,-253.6999969,-282.2999878,NaN
24,2061041918,156.66,-40.44,996.11,-103.6600037,-238.3099976,27.39999962
24,2061042000,156.52,-42.72,991.7,-71.37999725,-176.6499939,21.96999931
24,2061042006,155.03,-43.36,990.21,-42.58000183,-108.9800034,14.23999977
24,2061042012,154.33,-41.49,992.04,9.670000076,-96.90000153,6.760000229
24,2061042018,155.35,-39.98,993.02,-4.210000038,-137.3699951,7.610000134
24,2061042100,152.18,-38.59,1000.74,-0.8500000238,-217.6699982,-1.600000024
25,2061042000,158.04,-38.75,995.45,-139.1100006,-235.7899933,NaN
25,2061042006,158.77,-40.85,991.42,-63.41999817,-150.1600037,13.02999973
25,2061042012,158.39,-41.84,990.6,-25.42000008,-106.5100021,4.070000172
25,2061042018,159.75,-41.53,992.97,12.56000042,-93.52999878,-9.06000042
25,2061042100,156.25,-39.45,994.81,-28.10000038,-153.4400024,8.880000114
25,2061042106,157.16,-37.96,997.14,-61.75999832,-240.9900055,18.37000084
26,2061042512,151.85,-35.74,1014.14,-66.12000275,-129.3800049,NaN
26,2061042518,153.35,-37.51,1012.48,-22.65999985,-120.6399994,15.01000023
26,2061042600,154.52,-38.14,1011.1,-16.26000023,-158.7100067,21.79999924
26,2061042606,155.7,-38.47,1010.24,-53.13000107,-207.6799927,26.88999939
26,2061042612,156.98,-38.57,1010.56,-97.81999969,-251.1100006,31.47999954
26,2061042618,158.57,-39.17,1010.83,-171.9600067,-274.0299988,36.47999954
27,2061062006,159.51,-30.11,1010.27,-61.70000076,-367.8299866,NaN
27,2061062012,159.8,-30.59,1008.25,-7.559999943,-341.3599854,31.68000031
27,2061062018,160.24,-30.98,1007.36,12.21000004,-308.6000061,14.31999969
27,2061062100,160.6,-30.77,1007.16,52.52000046,-310.480011,-4.03000021
27,2061062106,161.59,-29.76,1008.47,4.190000057,-325.8399963,7.559999943
27,2061062112,162.93,-28.59,1009.76,-45.06000137,-318.8900146,15.69999981
28,2061070506,141.63,-37.2,1002.17,-167.5200043,-199.9600067,NaN
28,2061070512,143.29,-37.77,999.53,-187.9299927,-184.1300049,40.00999832
28,2061070518,146.92,-39.91,996.94,-168.1999969,-189.25,35.99000168
28,2061070600,152.27,-40.87,992.94,-154.3500061,-172.6799927,32.79999924
28,2061070606,155.49,-42.68,986.84,-98.68000031,-167.5399933,33.77999878
28,2061070612,158.91,-44.77,982.2,-132.4100037,-169.0299988,42.38000107
28,2061070618,163.03,-44.94,985.15,-59.27999878,-147.1900024,11.60999966
29,2061071306,148.06,-30.87,1006.43,-198.9799957,-367.230011,NaN
29,2061071312,154.67,-37.45,1001.78,-171.2899933,-222.3800049,40.61999893
29,2061071318,157.47,-39.88,997.81,-23.86000061,-187.4700012,35.93999863
29,2061071400,159.02,-42.95,995.23,-11.88000011,-182.6999969,53.13999939
29,2061071406,160.31,-44.5,994.01,14.02000046,-209.1300049,58.72000122
29,2061071412,161.65,-36.19,1004.53,-76.73999786,-186.2299957,-29.19000053
29,2061071418,163.11,-35.68,1002.38,-88.68000031,-183.3600006,2.019999981
29,2061071500,165.32,-34.38,1003.46,-80.88999939,-205.6799927,-8.340000153
29,2061071506,166.15,-37.36,1001.74,-64.05000305,-144.2899933,40.72000122
29,2061071512,166.71,-40.64,999.44,-95.11000061,-124.8000031,48.27999878
29,2061071518,167.99,-41.4,999.83,-95.81999969,-143.3999939,15.52999973
29,2061071600,170.29,-44.21,996.97,-74.56999969,-151.4799957,27.37000084
29,2061071606,170.44,-44.49,996.66,-128.4199982,-178.1399994,45.11000061
30,2061071400,157.9,-34.92,1005.07,-77.84999847,-255.0399933,NaN
30,2061071406,160.46,-37.55,1003.44,15.06999969,-191.9100037,27.79999924
30,2061071412,162.43,-39.87,1004.02,-32.15000153,-172.6699982,32.47999954
30,2061071418,163.26,-40.92,1004.02,-76.33999634,-165.0500031,36.72000122
30,2061071500,164.25,-37.98,1000.09,-71.30000305,-143.5599976,-37.31999969
30,2061071506,164.54,-40.84,998.35,-83.80000305,-119.8399963,54.63000107
30,2061071512,165.15,-42.7,997.91,-105.25,-128.8800049,55.72000122
31,2061091206,126.99,-28.69,1009.29,-274.519989,-324.0899963,NaN
31,2061091212,129.61,-28.9,1007.93,-244.1399994,-314.4500122,48.09000015
31,2061091218,132.48,-28.94,1007.69,-194.6000061,-342.7200012,33.50999832
31,2061091300,135.46,-30.33,1007.34,-194.2200012,-358.9899902,41.86999893
31,2061091306,137.32,-30.86,1006.22,-235.1699982,-338.0299988,55.08000183
31,2061091312,140.97,-32.3,1006.26,-263.769989,-345.9100037,63.20000076
31,2061091318,144.14,-32.82,1007.97,-250.4299927,-345.0299988,64.63999939
31,2061091400,147.2,-33.16,1009.02,-253.0099945,-332.3200073,57.81000137
31,2061091406,152.06,-33.61,1008.66,-240.8399963,-301.25,54.97000122
31,2061091412,148.51,-29.58,1012.91,-198.1999969,-375.3099976,-15.42000008
31,2061091418,148.83,-29.32,1014.08,-188.2599945,-356.8099976,33.68999863